TimeMST,TemperatureF,Dew PointF,Humidity,Sea Level PressureIn,VisibilityMPH,Wind Direction,Wind SpeedMPH,Gust SpeedMPH,PrecipitationIn,Events,Conditions,WindDirDegrees,DateUTC
12:15 AM,21.2,12.2,68,30.25,10.0,NW,10.4,-,N/A,,Clear,310,2013-01-23 07:15:00
12:35 AM,21.2,12.2,68,30.24,10.0,NW,10.4,-,N/A,,Clear,310,2013-01-23 07:35:00
12:55 AM,23.0,12.2,63,30.24,10.0,NW,11.5,-,N/A,,Clear,310,2013-01-23 07:55:00
1:15 AM,23.0,12.2,63,30.24,10.0,NW,10.4,-,N/A,,Clear,320,2013-01-23 08:15:00
1:35 AM,23.0,12.2,63,30.23,10.0,NW,11.5,-,N/A,,Clear,320,2013-01-23 08:35:00
1:55 AM,23.0,12.2,63,30.22,10.0,NW,13.8,-,N/A,,Clear,320,2013-01-23 08:55:00
2:15 AM,23.0,12.2,63,30.22,10.0,NW,12.7,-,N/A,,Clear,310,2013-01-23 09:15:00
2:35 AM,23.0,12.2,63,30.23,10.0,NW,12.7,-,N/A,,Clear,320,2013-01-23 09:35:00
2:55 AM,23.0,12.2,63,30.23,10.0,NW,13.8,-,N/A,,Clear,310,2013-01-23 09:55:00
3:15 AM,23.0,12.2,63,30.23,10.0,NW,12.7,-,N/A,,Clear,310,2013-01-23 10:15:00
3:35 AM,23.0,12.2,63,30.22,10.0,NW,10.4,-,N/A,,Clear,310,2013-01-23 10:35:00
3:55 AM,23.0,12.2,63,30.23,10.0,NW,9.2,-,N/A,,Clear,310,2013-01-23 10:55:00
4:15 AM,23.0,12.2,63,30.23,10.0,NW,11.5,-,N/A,,Clear,310,2013-01-23 11:15:00
4:35 AM,23.0,12.2,63,30.22,10.0,NW,9.2,-,N/A,,Clear,310,2013-01-23 11:35:00
4:55 AM,23.0,12.2,63,30.22,10.0,NW,12.7,-,N/A,,Clear,310,2013-01-23 11:55:00
5:15 AM,23.0,12.2,63,30.21,10.0,NW,11.5,-,N/A,,Clear,320,2013-01-23 12:15:00
5:35 AM,23.0,12.2,63,30.21,10.0,NW,9.2,-,N/A,,Clear,320,2013-01-23 12:35:00
5:55 AM,23.0,12.2,63,30.22,10.0,NW,12.7,-,N/A,,Clear,310,2013-01-23 12:55:00
6:47 AM,21.2,10.4,63,30.21,10.0,WNW,9.2,-,N/A,,Clear,290,2013-01-23 13:47:00
7:47 AM,21.2,10.4,63,30.21,10.0,WNW,9.2,-,N/A,,Scattered Clouds,290,2013-01-23 14:47:00
8:47 AM,21.2,10.4,63,30.21,10.0,WNW,9.2,-,N/A,,Mostly Cloudy,300,2013-01-23 15:47:00
9:47 AM,23.0,10.4,59,30.12,10.0,WNW,8.1,-,N/A,,Mostly Cloudy,300,2013-01-23 16:47:00
10:47 AM,26.6,12.2,55,30.23,10.0,WNW,8.1,-,N/A,,Mostly Cloudy,290,2013-01-23 17:47:00
11:47 AM,28.4,15.8,59,30.22,10.0,NW,6.9,-,N/A,,Overcast,310,2013-01-23 18:47:00
12:47 PM,33.8,15.8,48,30.18,10.0,NW,8.1,-,N/A,,Mostly Cloudy,310,2013-01-23 19:47:00
1:47 PM,35.6,30.2,81,30.15,10.0,NW,5.8,-,N/A,,Mostly Cloudy,310,2013-01-23 20:47:00
2:47 PM,35.6,19.4,52,30.17,10.0,SE,5.8,-,N/A,,Overcast,130,2013-01-23 21:47:00
3:47 PM,35.6,15.8,44,30.14,10.0,Calm,Calm,-,N/A,,Overcast,0,2013-01-23 22:47:00
4:47 PM,35.6,17.6,48,30.13,10.0,ESE,5.8,-,N/A,,Mostly Cloudy,120,2013-01-23 23:47:00
5:47 PM,32.0,17.6,55,30.15,10.0,Calm,Calm,-,N/A,,Overcast,0,2013-01-24 00:47:00
6:47 PM,32.0,21.2,64,30.15,10.0,Calm,Calm,-,N/A,,Overcast,0,2013-01-24 01:47:00
7:47 PM,30.2,21.2,69,30.17,10.0,NW,5.8,-,N/A,,Overcast,320,2013-01-24 02:47:00
8:47 PM,30.2,21.2,69,30.15,10.0,West,10.4,-,N/A,,Mostly Cloudy,280,2013-01-24 03:47:00
9:47 PM,32.0,21.2,64,30.15,10.0,WNW,8.1,-,N/A,,Scattered Clouds,300,2013-01-24 04:47:00
10:15 PM,32.0,21.2,64,30.15,10.0,WNW,8.1,-,N/A,,Scattered Clouds,300,2013-01-24 05:15:00
10:35 PM,30.2,21.2,69,30.15,10.0,NNW,9.2,-,N/A,,Clear,330,2013-01-24 05:35:00
10:47 PM,30.2,21.2,69,30.15,10.0,WNW,12.7,-,N/A,,Scattered Clouds,290,2013-01-24 05:47:00
10:55 PM,30.2,21.2,69,30.15,10.0,NW,11.5,-,N/A,,Mostly Cloudy,310,2013-01-24 05:55:00
11:15 PM,30.2,21.2,69,30.16,10.0,NW,11.5,-,N/A,,Overcast,320,2013-01-24 06:15:00
11:35 PM,30.2,21.2,69,30.15,10.0,NW,9.2,-,N/A,,Mostly Cloudy,310,2013-01-24 06:35:00
11:55 PM,32.0,21.2,64,30.15,10.0,NW,11.5,-,N/A,,Overcast,310,2013-01-24 06:55:00